Location: Catacaguana
(10.4120°N, 66.7591°W)
Time: 05:03:25
(UTC+00:00)

Cosmos 2239 Rocket - Pass Details

Date: 27 May 2022
Orbit: 955 x 990 km, 82.9° (Epoch: 26 June)

Event Time Altitude Azimuth Distance (km) Brightness Sun altitude
Rises 08:58:58 0° 354° (N) 3,684 7.8 -15.5°
Reaches altitude 10° 09:01:28 10° 352° (N) 2,739 7.1 -14.9°
Maximum altitude 09:07:45 78° 267° (W) 1,012 4.5 -13.6°
Drops below altitude 10° 09:14:03 10° 182° (S) 2,744 6.6 -12.1°
Sets 09:16:34 0° 180° (S) 3,691 7.3 -11.6°
